sat.trackr.live / text

‹ back to catalog

KUIPER-00276

NORAD 67794 · 2026-030AG

PAYLOAD ACTIVE UNKNOWN

§ Identity

Operator
Country
US
Launch date
2026-02-12
Launch site
FRGUI
Launch vehicle
Mass (kg)
RCS (m²)

External: N2YO · Heavens-Above · Gunter

§ Orbital elements

Epoch: 2026-09-20T14:29:19.168512Z

Period
97.30 min
Inclination
51.8999°
Eccentricity
0.0000971
Mean motion
14.79927861 rev/d
Perigee alt
628.9 km
Apogee alt
630.2 km
Semi-major
7,007.7 km
B*
-1.0868e-4
RAAN
46.1913°
Arg perigee
98.4890°
Mean anomaly
261.6183°
Rev number
3,439

§ Raw data

KUIPER-002761 67794U 26030AG  26263.60369408 -.00001050  00000+0 -10868-3 0  99922 67794  51.8999  46.1913 0000971  98.4890 261.6183 14.79927861 34395

JSON: /api/v1/satellites/67794 · /tle

For live sub-satellite position, see the globe view (requires WebGL).

§ Visibility from observer

Set your observer location to see the next 7 days of passes ≥ 10°. The values pass through the URL so the page stays shareable.

No JS? Fill the form by hand. The geolocation button needs JavaScript.